Location: Neuvy Saint Sepulchre
(46.5953°N, 1.8122°E)
Time: 16:09:41
(UTC+01:00)

Envisat - Pass Details

Date: 20 October 2021
Orbit: 764 x 766 km, 98.2° (Epoch: 04 December)

Event Time Altitude Azimuth Distance (km) Brightness Sun altitude
Rises 05:27:41 0° 33° (NNE) 3,243 6.9 -29.6°
Reaches altitude 10° 05:31:48 10° 66° (ENE) 2,308 6.4 -28.9°
Maximum altitude 05:33:30 12° 86° (E) 2,196 6.2 -28.6°
Drops below altitude 10° 05:35:12 10° 106° (ESE) 2,302 6.2 -28.4°
Sets 05:39:16 0° 138° (SE) 3,220 6.6 -27.7°
